Showing default

ISTSAT-1, 60238

Orbit data source: Space-Track

ISTSAT-1, 60238 is a Portuguese payload satellite in LEO that was launched on Tue, 09 Jul 2024 UTC via an ARIANE 62 launch vehicle from the French Guiana (FRGUI). Payload-class satellites include a variety of spacecraft equipped with specific instruments for various scientific and technological missions. These include communications satellites like Starlink; space stations such as the ISS; scientific satellites like the Hubble; Earth observation satellites from companies like Planet Labs, Umbra, and HawkEye 360; GPS; miniature CubeSats for education and research; and military/defense satellites.

Loading next visibility...
Identifier
60238, 2024-128D
Orbit
LEO
Country
Flag of PTPT / POR
Related business
Manufacturer
ISTL
Mission
Operational Amateur Technology
Bus & Motor
CUBESAT 1U, Unknown motor
Mass
1 kg wet, 1 kg dry
Launch date (UTC)
2024-07-09 (2 years ago)
Launch vehicle
ARIANE 62
Launch site
French Guiana (FRGUI)
Object type
Payload
Rocket body
Debris
Shape & HBR
Box, 0.1 m
Radar Cross Section
0.015 m², Small (<0.1 m²)

Expand to show TLE details & history
Last TLE update: 7 hours ago

TLE from 7 hours ago
0 ISTSAT-1
1 60238U 24128D   26124.78286708  .00007086  00000-0  42501-3 0  9993
2 60238  61.9894 359.5364 0043797 122.9265 237.6054 15.11046046 99902
Epoch: 2026-05-04T18:47Z
TLE epoch observation values (Epoch: 2026-05-04T18:47:19.715Z)
Latitude
-0.00007°
Longitude
-144.9629°
Altitude
551.098 km
Speed
7.578 km/s
True Right ascension
23h 58m 08s
True Declination
0° 00' 00"
Sunlit
Object was in daylight at epoch
Visualization orbit readout
Latitude
Unknown
Longitude
Unknown
Altitude
Unknown
Speed
Unknown
Apparent Right ascension
Unknown
Apparent Declination
Unknown
Sunlit
N/A
Visualization observer readout
Local Sidereal Time
09:45:19
Azimuth
Unknown
Elevation
Unknown
Doppler factor
Unknown
Orbital elements
Apogee altitude
562.199 km
Perigee altitude
501.671 km
Semi-major axis
6,910.072 km
Eccentricity
0.00438
Inclination
61.9894°
RAAN
359.5364°
Arg. of periapsis
122.9265°
True anomaly
237.18287°
Mean anomaly
237.6054°
Eccentric anomaly
237.39401°
Mean motion
3.7785 °/min
Orbital period
95.28 mins
BSTAR
0.00042501
Loading maneuver chart data...
Computing Atmospheric mass density...
Loading historical data...
Loading historical data...
Loading historical data...
Loading historical data...
Loading historical data...
Loading historical data...
Loading historical data...

Documentation

Showing up to 5 results
|